This demonstration page uses our WeatherBlox Daily Observations layout. Learn more.

Hourly Observations for October 5, 2016

Temp ( °F °C ) Dew Point ( °F °C ) Humidity (%) Winds ( mph kmh ) Pressure ( in mb ) Visibility ( mi km ) Precip ( " mm )
12:15 am 00:15 Clear 49 9.3 35 1.6 59 59 Calm 29.8 1009 10 16.09344 0 0
12:35 am 00:35 Clear 46 7.6 35 1.8 67 67 Calm 29.8 1009 10 16.09344 0 0
12:55 am 00:55 Clear 47 8.5 36 2.1 64 64 Calm 29.8 1009 10 16.09344 0 0
1:15 am 01:15 Clear 49 9.3 36 2.3 62 62 W 3 6 29.8 1009 10 16.09344 0 0
1:35 am 01:35 Clear 47 8.1 35 1.9 65 65 W 5 7 29.8 1009 10 16.09344 0 0
1:55 am 01:55 Clear 48 9.1 36 2.3 63 63 NW 5 7 29.8 1009 10 16.09344 0 0
2:15 am 02:15 Clear 48 8.9 36 2.1 63 63 NW 3 6 29.8 1009 10 16.09344 0 0
2:35 am 02:35 Clear 47 8.6 36 2.2 64 64 NW 5 7 29.8 1009 10 16.09344 0 0
2:55 am 02:55 Clear 46 7.9 37 2.5 69 69 WNW 3 6 29.83 1010 10 16.09344 0 0
3:15 am 03:15 Clear 46 7.5 37 2.5 71 71 WNW 6 9 29.83 1010 10 16.09344 0 0
3:35 am 03:35 Clear 46 7.8 37 2.7 70 70 WNW 6 9 29.83 1010 10 16.09344 0 0
3:55 am 03:55 Clear 46 7.7 37 2.7 71 71 WNW 5 7 29.83 1010 10 16.09344 0 0
4:15 am 04:15 Clear 45 7 37 2.5 73 73 NW 5 7 29.88 1012 10 16.09344 0 0
4:35 am 04:35 Clear 44 6.5 36 2.4 75 75 NW 3 6 29.88 1012 10 16.09344 0 0
4:55 am 04:55 Clear 44 6.5 36 2.2 74 74 WNW 5 7 29.91 1013 10 16.09344 0 0
5:15 am 05:15 Clear 43 6.2 36 2.1 75 75 NW 6 9 29.91 1013 10 16.09344 0 0
5:35 am 05:35 Clear 42 5.5 36 2 78 78 NW 5 7 29.94 1014 10 16.09344 0 0
5:55 am 05:55 Clear 41 5.1 36 2 81 81 NNW 5 7 29.94 1014 10 16.09344 0 0
6:15 am 06:15 Clear 41 5.2 36 2 80 80 NW 5 7 29.94 1014 10 16.09344 0 0
6:35 am 06:35 Clear 41 5 36 2 81 81 NNW 3 6 29.97 1015 10 16.09344 0 0
6:55 am 06:55 Clear 40 4.6 36 2.2 85 85 NW 6 9 29.97 1015 10 16.09344 0 0
7:15 am 07:15 Clear 40 4.2 36 2 86 86 Calm 30 1016 10 16.09344 0 0
7:35 am 07:35 Clear 40 4.5 35 1.5 81 81 Calm 30 1016 10 16.09344 0 0
7:55 am 07:55 Sunny 37 2.9 34 0.9 87 87 Calm 30 1016 10 16.09344 0 0
8:15 am 08:15 Sunny 38 3.1 34 1.2 88 88 Calm 30 1016 10 16.09344 0 0
8:35 am 08:35 Sunny 42 5.6 38 3.2 85 85 NNE 3 6 29.97 1015 10 16.09344 0 0
8:55 am 08:55 Sunny 46 8 39 4.1 77 77 N 3 6 29.97 1015 10 16.09344 0 0
9:15 am 09:15 Sunny 50 9.8 40 4.6 70 70 Calm 29.94 1014 10 16.09344 0 0
9:35 am 09:35 Sunny 53 11.5 38 3.4 58 58 NNE 3 6 29.94 1014 10 16.09344 0 0
9:55 am 09:55 Sunny 55 12.9 37 2.9 51 51 ENE 6 9 29.94 1014 10 16.09344 0 0
10:15 am 10:15 Sunny 57 13.9 37 2.6 47 47 E 7 11 29.94 1014 10 16.09344 0 0
10:35 am 10:35 Sunny 58 14.7 36 2.3 43 43 E 6 9 29.94 1014 10 16.09344 0 0
10:55 am 10:55 Sunny 60 15.4 35 1.5 39 39 ESE 7 11 29.94 1014 10 16.09344 0 0
11:15 am 11:15 Sunny 62 16.4 34 1.1 36 36 E 8 13 29.91 1013 10 16.09344 0 0
11:35 am 11:35 Sunny 63 17 34 1.3 35 35 E 3 6 29.91 1013 10 16.09344 0 0
11:55 am 11:55 Sunny 64 17.5 34 1.1 33 33 Calm 29.91 1013 10 16.09344 0 0
12:15 pm 12:15 Sunny 65 18.4 34 1 31 31 Calm 29.88 1012 10 16.09344 0 0
12:35 pm 12:35 Sunny 66 18.8 34 1.2 31 31 S 6 9 29.88 1012 10 16.09344 0 0
12:55 pm 12:55 Sunny 68 19.8 34 1 29 29 Calm 29.85 1011 10 16.09344 0 0
1:15 pm 13:15 Sunny 68 20.2 33 0.7 27 27 Calm 29.85 1011 10 16.09344 0 0
1:35 pm 13:35 Sunny 70 21.2 33 0.7 26 26 SSE 6 9 29.83 1010 10 16.09344 0 0
1:55 pm 13:55 Sunny 71 21.4 32 0.1 24 24 S 3 6 29.83 1010 10 16.09344 0 0
2:15 pm 14:15 Sunny 71 21.9 32 0 23 23 S 3 6 29.83 1010 10 16.09344 0 0
2:35 pm 14:35 Sunny 72 22.4 31 -0.5 22 22 S 6 9 29.77 1008 10 16.09344 0 0
2:55 pm 14:55 Sunny 73 22.7 31 -0.3 22 22 SSE 10 17 29.77 1008 10 16.09344 0 0
3:15 pm 15:15 Sunny 74 23.1 31 -0.5 21 21 S 9 15 29.77 1008 10 16.09344 0 0
3:35 pm 15:35 Partly Cloudy 73 23 30 -1.3 20 20 SSW 9 15 29.77 1008 10 16.09344 0 0
3:55 pm 15:55 Sunny 73 22.9 31 -0.5 21 21 SSW 8 13 29.77 1008 10 16.09344 0 0
4:15 pm 16:15 Sunny 74 23.3 31 -0.5 21 21 SSE 3 6 29.77 1008 10 16.09344 0 0
4:35 pm 16:35 Sunny 74 23.3 30 -1.1 20 20 S 10 17 29.77 1008 10 16.09344 0 0
4:55 pm 16:55 Sunny 74 23.1 30 -1.1 20 20 SSW 6 9 29.77 1008 10 16.09344 0 0
5:15 pm 17:15 Sunny 73 22.8 32 0.2 22 22 SSE 8 13 29.77 1008 10 16.09344 0 0
5:35 pm 17:35 Sunny 73 22.6 33 0.5 23 23 SE 7 11 29.77 1008 10 16.09344 0 0
5:55 pm 17:55 Sunny 73 22.6 33 0.8 24 24 SE 5 7 29.77 1008 10 16.09344 0 0
6:15 pm 18:15 Sunny 72 22.4 33 0.8 24 24 S 6 9 29.77 1008 10 16.09344 0 0
6:35 pm 18:35 Sunny 71 21.6 35 1.8 27 27 SSE 5 7 29.83 1010 10 16.09344 0 0
6:55 pm 18:55 Sunny 68 20.1 35 1.7 30 30 SSE 6 9 29.83 1010 10 16.09344 0 0
7:15 pm 19:15 Clear 63 17.2 34 1.2 34 34 SE 7 11 29.85 1011 10 16.09344 0 0
7:35 pm 19:35 Clear 61 16.2 34 1.2 36 36 SSE 7 11 29.85 1011 10 16.09344 0 0
7:55 pm 19:55 Clear 58 14.5 35 1.5 42 42 SE 6 9 29.88 1012 10 16.09344 0 0
8:15 pm 20:15 Clear 55 13 36 2.3 48 48 SE 9 15 29.88 1012 10 16.09344 0 0
8:35 pm 20:35 Clear 55 13 37 2.9 51 51 SE 9 15 29.88 1012 10 16.09344 0 0
8:55 pm 20:55 Clear 54 12.4 38 3.4 54 54 ESE 8 13 29.88 1012 10 16.09344 0 0
9:15 pm 21:15 Clear 54 12.3 39 4 57 57 ESE 9 15 29.88 1012 10 16.09344 0 0
9:35 pm 21:35 Clear 54 12.2 40 4.2 58 58 ESE 9 15 29.88 1012 10 16.09344 0 0
9:55 pm 21:55 Clear 54 12.2 40 4.5 60 60 ESE 9 15 29.88 1012 10 16.09344 0 0
10:15 pm 22:15 Clear 53 11.6 40 4.5 62 62 ESE 8 13 29.94 1014 10 16.09344 0 0
10:35 pm 22:35 Clear 51 10.3 39 4.1 66 66 ESE 7 11 29.94 1014 10 16.09344 0 0
10:55 pm 22:55 Clear 49 9.6 40 4.2 69 69 ESE 7 11 29.94 1014 10 16.09344 0 0
11:15 pm 23:15 Clear 48 9.1 39 3.9 70 70 ESE 8 13 29.94 1014 10 16.09344 0 0
11:35 pm 23:35 Clear 50 10.1 40 4.7 69 69 SE 7 11 29.94 1014 10 16.09344 0 0
11:55 pm 23:55 Clear 50 9.9 40 4.7 70 70 SE 8 13 29.94 1014 10 16.09344 0 0

Powered by AerisWeather